DLH239 EDDG-EDLW

Flight info

Callsign DLH239
Flight time N/A
Altitude 7000
Route DOMEG2Y DOMEG DOMEG2A
Aircraft A20N/M-SDE2E3FGHIRWXY/LB1

Departure

Time 2026-05-06 10:12
Airport Münster Osnabrück Airport (EDDG)

Arrival

Time N/A
Airport Dortmund Airport (EDLW)
Time Latitude Longitude Altitude Speed Heading
2026-05-06 09:40 52.13135 7.69222 171 ft 0 kts 187°
2026-05-06 10:00 52.13136 7.69223 171 ft 2 kts 187°
2026-05-06 10:00 52.13148 7.69225 171 ft 3 kts 187°
2026-05-06 10:01 52.13166 7.69229 171 ft 3 kts 160°
2026-05-06 10:01 52.13178 7.69211 170 ft 1 kts 95°
2026-05-06 10:01 52.13178 7.69210 170 ft 0 kts 95°
2026-05-06 10:05 52.13178 7.69212 170 ft 0 kts 85°
2026-05-06 10:05 52.13183 7.69227 170 ft 3 kts 52°
2026-05-06 10:05 52.13205 7.69253 170 ft 6 kts 40°
2026-05-06 10:05 52.13217 7.69280 170 ft 2 kts 59°
2026-05-06 10:06 52.13232 7.69313 170 ft 3 kts 38°
2026-05-06 10:06 52.13242 7.69317 170 ft 1 kts
2026-05-06 10:06 52.13260 7.69316 170 ft 4 kts 355°
2026-05-06 10:06 52.13297 7.69297 169 ft 9 kts 341°
2026-05-06 10:07 52.13370 7.69255 168 ft 12 kts 341°
2026-05-06 10:07 52.13427 7.69204 168 ft 9 kts 303°
2026-05-06 10:07 52.13423 7.69110 167 ft 10 kts 253°
2026-05-06 10:07 52.13394 7.68977 169 ft 14 kts 251°
2026-05-06 10:08 52.13359 7.68813 170 ft 16 kts 251°
2026-05-06 10:08 52.13324 7.68647 172 ft 17 kts 251°
2026-05-06 10:08 52.13286 7.68462 172 ft 18 kts 252°
2026-05-06 10:08 52.13245 7.68258 173 ft 21 kts 252°
2026-05-06 10:09 52.13190 7.68009 170 ft 25 kts 250°
2026-05-06 10:09 52.13131 7.67737 166 ft 27 kts 250°
2026-05-06 10:09 52.13071 7.67453 165 ft 26 kts 251°
2026-05-06 10:09 52.13028 7.67242 167 ft 13 kts 257°
2026-05-06 10:10 52.13041 7.67139 168 ft 8 kts 298°
2026-05-06 10:10 52.13073 7.67080 167 ft 7 kts 323°
2026-05-06 10:10 52.13113 7.67049 167 ft 5 kts 346°
2026-05-06 10:10 52.13140 7.67049 167 ft 4 kts
2026-05-06 10:11 52.13160 7.67065 167 ft 3 kts 36°
2026-05-06 10:11 52.13166 7.67083 166 ft 0 kts 68°
2026-05-06 10:12 52.13189 7.67178 165 ft 24 kts 69°
2026-05-06 10:12 52.13338 7.67867 167 ft 108 kts 70°
2026-05-06 10:12 52.13658 7.69372 488 ft 153 kts 69°
2026-05-06 10:12 52.14026 7.71074 1412 ft 171 kts 68°
2026-05-06 10:13 52.14457 7.73097 2112 ft 204 kts 70°
2026-05-06 10:13 52.14929 7.75366 3219 ft 217 kts 71°
2026-05-06 10:13 52.15418 7.77787 4184 ft 235 kts 74°
2026-05-06 10:13 52.15521 7.80440 4752 ft 236 kts 100°
2026-05-06 10:14 52.14711 7.82741 4979 ft 252 kts 135°
2026-05-06 10:14 52.13122 7.84160 4991 ft 269 kts 157°
2026-05-06 10:14 52.11327 7.85102 4990 ft 273 kts 162°
2026-05-06 10:14 52.09422 7.85422 4987 ft 276 kts 183°
2026-05-06 10:15 52.07566 7.84627 4995 ft 278 kts 199°
2026-05-06 10:15 52.05778 7.83374 4994 ft 279 kts 203°
2026-05-06 10:15 52.04009 7.82074 4989 ft 278 kts 203°
2026-05-06 10:15 52.02270 7.80806 4971 ft 276 kts 204°
2026-05-06 10:16 52.00515 7.79539 4964 ft 274 kts 204°
2026-05-06 10:16 51.98764 7.78285 4967 ft 274 kts 204°
2026-05-06 10:16 51.97028 7.77049 4970 ft 274 kts 204°
2026-05-06 10:16 51.95281 7.75808 4968 ft 274 kts 204°
2026-05-06 10:17 51.93530 7.74568 4964 ft 273 kts 203°
2026-05-06 10:17 51.91790 7.73338 4962 ft 273 kts 204°
2026-05-06 10:17 51.90070 7.72125 4962 ft 272 kts 203°
2026-05-06 10:17 51.88331 7.70901 4969 ft 273 kts 203°
2026-05-06 10:18 51.86590 7.69676 4962 ft 273 kts 204°
2026-05-06 10:18 51.84830 7.68439 4981 ft 274 kts 203°
2026-05-06 10:18 51.83075 7.67208 4966 ft 274 kts 203°
2026-05-06 10:18 51.81346 7.65995 4963 ft 274 kts 203°
2026-05-06 10:19 51.79602 7.64770 4960 ft 273 kts 203°
2026-05-06 10:19 51.77867 7.63552 4960 ft 270 kts 204°
2026-05-06 10:19 51.76167 7.62361 4962 ft 268 kts 204°
2026-05-06 10:19 51.74451 7.61161 4958 ft 268 kts 204°
2026-05-06 10:20 51.72740 7.59965 4966 ft 268 kts 204°
2026-05-06 10:20 51.70974 7.59038 4956 ft 268 kts 188°
2026-05-06 10:20 51.69131 7.59092 4965 ft 268 kts 174°
2026-05-06 10:20 51.67286 7.59505 4963 ft 269 kts 172°
2026-05-06 10:21 51.65423 7.59973 4964 ft 269 kts 171°
2026-05-06 10:21 51.63587 7.60430 4966 ft 269 kts 172°
2026-05-06 10:21 51.61736 7.60883 4964 ft 269 kts 172°
2026-05-06 10:21 51.59875 7.61332 4975 ft 269 kts 172°
2026-05-06 10:22 51.58031 7.61772 4968 ft 268 kts 172°
2026-05-06 10:22 51.56177 7.62213 4961 ft 269 kts 172°
2026-05-06 10:22 51.54314 7.62470 4943 ft 268 kts 184°
2026-05-06 10:22 51.52567 7.61672 4847 ft 263 kts 211°
2026-05-06 10:23 51.51279 7.59646 4899 ft 261 kts 236°
2026-05-06 10:23 51.50329 7.57133 5005 ft 261 kts 240°
2026-05-06 10:23 51.49465 7.54648 5102 ft 248 kts 240°
2026-05-06 10:23 51.48648 7.52281 5146 ft 238 kts 240°
2026-05-06 10:24 51.47854 7.50001 5103 ft 227 kts 240°
2026-05-06 10:24 51.47098 7.47844 4987 ft 217 kts 239°
2026-05-06 10:24 51.46173 7.46028 4740 ft 212 kts 212°
2026-05-06 10:24 51.44798 7.45226 4450 ft 210 kts 192°
2026-05-06 10:25 51.43358 7.44826 4178 ft 210 kts 189°
2026-05-06 10:25 51.41917 7.44477 3874 ft 210 kts 189°
2026-05-06 10:25 51.40474 7.44120 3576 ft 209 kts 189°
2026-05-06 10:25 51.39039 7.43754 3322 ft 208 kts 189°
2026-05-06 10:26 51.37613 7.43383 3074 ft 208 kts 189°
2026-05-06 10:26 51.36185 7.43007 2821 ft 207 kts 189°
2026-05-06 10:26 51.34763 7.42630 2628 ft 206 kts 189°
2026-05-06 10:26 51.33336 7.42250 2839 ft 212 kts 189°
2026-05-06 10:27 51.31844 7.41852 3690 ft 218 kts 189°
2026-05-06 10:27 51.30408 7.41469 4586 ft 209 kts 189°
2026-05-06 10:27 51.28974 7.41086 5007 ft 209 kts 189°
2026-05-06 10:27 51.27542 7.40705 5411 ft 209 kts 190°
2026-05-06 10:28 51.26100 7.40323 5569 ft 213 kts 190°
2026-05-06 10:28 51.24626 7.39926 5459 ft 214 kts 189°
2026-05-06 10:28 51.23159 7.39535 5388 ft 213 kts 190°
2026-05-06 10:28 51.21699 7.39149 5248 ft 212 kts 189°
2026-05-06 10:29 51.20253 7.38764 5018 ft 210 kts 189°
2026-05-06 10:29 51.18808 7.38381 4739 ft 210 kts 189°
2026-05-06 10:29 51.17371 7.38001 4464 ft 209 kts 189°
2026-05-06 10:29 51.15939 7.37622 4171 ft 209 kts 189°
2026-05-06 10:30 51.14500 7.37242 3866 ft 210 kts 189°
2026-05-06 10:30 51.13063 7.36862 3643 ft 207 kts 189°
2026-05-06 10:30 51.11638 7.36486 3559 ft 207 kts 189°
2026-05-06 10:30 51.10233 7.36115 3447 ft 207 kts 190°
2026-05-06 10:31 51.08812 7.35740 3298 ft 207 kts 190°